Regional Weather Roundup
Issued by NWS

Home | Current Version | Previous Version | Text Only | Print | Product List | Glossary On
Versions: 1 2 3 4 5 6 7 8 9 10 11 12 13 14 15 16 17 18 19 20 21 22 23 24 25 26 27 28 29 30 31 32 33 34 35 36 37 38 39 40 41 42 43 44 45 46 47 48 49 50
000
ASUS44 KBMX 012110
RWRAL

ALABAMA REGIONAL WEATHER ROUNDUP
NATIONAL WEATHER SERVICE BIRMINGHAM AL
400 PM CDT MON SEP 01 2014

NOTE: "FAIR" INDICATES FEW OR NO CLOUDS BELOW 12,000 FEET
WITH NO SIGNIFICANT WEATHER AND/OR OBSTRUCTIONS TO VISIBILITY.

THE REMARK "TC" DENOTES TEMPERATURE IN DEGREES CELSIUS.

ALZ001>011-014-016>018-020-012200-
NORTH ALABAMA

CITY           SKY/WX    TMP DP  RH WIND       PRES   REMARKS
MUSCLE SHOALS  SUNNY     91  68  46 SW10G16   30.04F HX  95
HUNTSVILLE     MOSUNNY   92  69  47 SW9       30.04F HX  97
DECATUR        MOSUNNY   90  69  50 MISG      30.04F HX  94
HALEYVILLE     FAIR      90  70  51 SW7       30.09F HX  95
GADSDEN        MOSUNNY   93  66  40 SW6       30.03F HX  96
$$

ALZ012-013-022-023-030>036-040>044-012200-
WEST CENTRAL ALABAMA

CITY           SKY/WX    TMP DP  RH WIND       PRES   REMARKS
TUSCALOOSA     MOSUNNY   96  61  31 MISG      30.02F HX  96
$$

ALZ015-024>027-033>036-040>044-012200-
CENTRAL ALABAMA

CITY           SKY/WX    TMP DP  RH WIND       PRES   REMARKS
BIRMINGHAM     PTSUNNY   92  66  42 S6        30.05F HX  94
MONTGOMERY     SUNNY     93  69  45 S5        30.03F HX  98
SHELBY CO ARPT MOSUNNY   93  67  42 SW8       30.04F HX  96
MAXWELL AFB    SUNNY     95  69  43 SW5       30.03F HX 100
GREENVILLE     PTSUNNY   94  69  44 CALM      30.04F HX  99
$$

ALZ019-021-028-029-037-038-045>048-012200-
EAST CENTRAL ALABAMA

CITY           SKY/WX    TMP DP  RH WIND       PRES   REMARKS
ANNISTON       PTSUNNY   88  69  53 SE3       30.06F HX  92
ALEXANDER CITY MOSUNNY   96  69  41 SW8       30.06F HX 101
AUBURN         MOSUNNY   90  66  45 W9        30.09F HX  92
$$

ALZ051>064-012200-
SOUTHWEST ALABAMA

CITY           SKY/WX    TMP DP  RH WIND       PRES   REMARKS
MOBILE         MOSUNNY   89  75  63 S16       30.04F HX  99
BROOKLEY FIELD MOSUNNY   89  77  67 S14       30.04F HX 101
EVERGREEN      CLOUDY    94  68  42 S7        30.03F HX  98
$$

ALZ049-050-065>069-012200-
SOUTHEAST ALABAMA

CITY           SKY/WX    TMP DP  RH WIND       PRES   REMARKS
DOTHAN         MOSUNNY   97  64  33 S8        30.07F HX  99
OZARK          MOSUNNY   96  66  36 VRB7      30.03F HX 100
TROY           MOSUNNY   94  69  44 MISG      30.05F HX  99
EUFAULA        FAIR      98  69  38 CALM      30.01F HX 104
$$


USA.gov is the U.S. government's official web portal to all federal, state and local government web resources and services.